Orbital Elements at Epoch 2459200.5 (2020-Dec-17.0) TDB
Reference: JPL 20 (heliocentric ecliptic J2000)
Element | Value | Uncertainty (1-sigma) | Units |
e | .1855599860114211 | 4.6844e-08 | |
a | 2.334498672378793 | 7.2713e-09 | au |
q | 1.901309131388503 | 1.1077e-07 | au |
i | 2.00657351088882 | 4.4091e-06 | deg |
node | 193.7370523184327 | 0.00013386 | deg |
peri | 245.5756835008625 | 0.00013447 | deg |
M | 357.9514067853306 | 1.0347e-05 | deg |
tp | 2459207.913821115655 (2020-Dec-24.41382112) | 3.744e-05 | TDB |
period | 1302.833370004363 3.57 | 6.0869e-06 1.667e-08 | d yr |
n | .2763208314189822 | 1.291e-09 | deg/d |
Q | 2.767688213369084 | 8.6205e-09 | au |
|
| | Orbit Determination Parameters
Additional Information
|